Wind_Speed
17 16 15 15 15 15 14 13 13 14 13 14 14 13 12 13 13 12 12 12 11 11 11 11 11 12 12 12 11 12 13 13 13 14 13 14 14 14 14 15 15 15 15
18 17 17 17 16 16 15 15 15 14 14 14 13 13 12 13 13 14 13 13 13 12 13 12 12 12 12 12 13 13 14 14 15 14 14 16 16 16 17 16 17 17 17
18 17 17 17 16 16 16 16 16 16 15 14 14 13 13 14 14 14 14 14 14 15 14 13 13 13 13 13 13 14 14 15 16 16 16 17 17 17 17 17 16 16 17
19 18 18 19 18 17 17 17 17 17 16 16 15 15 15 14 15 15 15 15 15 15 16 15 15 14 14 14 14 14 15 16 16 16 17 18 17 17 17 17 18 18 17
20 20 20 20 19 18 18 18 19 19 18 17 17 17 16 15 16 16 16 16 16 16 16 16 16 15 15 15 15 15 16 17 17 17 17 18 18 18 18 18 18 18 18
21 21 21 20 20 20 20 19 20 19 18 18 18 18 18 18 17 17 17 17 17 16 16 16 15 15 15 16 16 17 18 18 18 18 19 19 19 19 19 19 18 18 19
21 22 22 20 21 21 21 20 19 18 18 18 18 18 18 18 17 17 17 17 17 17 17 16 16 16 17 17 17 18 19 20 20 20 20 20 20 20 20 19 19 18 19
22 23 22 22 21 20 21 20 19 19 18 18 18 18 19 19 19 19 18 19 18 17 18 18 17 17 17 18 19 20 20 21 22 21 21 21 20 20 20 20 20 20 19
22 22 23 23 22 21 20 20 19 19 19 18 18 18 19 20 20 20 19 19 19 18 19 18 18 18 19 19 19 20 20 21 22 21 20 20 20 20 20 20 20 21 21
21 21 22 23 23 22 22 21 20 19 18 18 18 18 18 19 20 20 20 19 19 18 19 19 19 19 19 19 19 19 20 20 19 20 20 19 20 20 21 21 21 22 22
22 22 23 23 22 22 21 21 21 20 19 19 19 19 19 19 20 20 20 20 20 19 18 18 18 19 19 19 19 20 20 19 19 19 20 20 20 21 22 21 22 22 22
21 21 21 21 21 21 20 20 21 20 20 20 20 20 19 20 20 20 20 20 20 20 19 19 19 20 20 20 20 20 20 20 20 20 21 21 21 21 21 22 22 22 22
20 20 21 21 21 21 20 21 21 20 20 19 20 20 20 20 20 20 20 20 20 20 20 20 20 21 21 21 21 20 20 21 21 21 21 21 21 21 21 21 21 22 22
20 20 21 22 20 19 20 21 21 20 19 19 19 19 20 20 21 21 21 21 21 21 21 22 21 21 21 21 21 20 20 20 21 21 21 21 21 22 22 22 22 22 22
20 20 20 21 21 20 19 20 20 20 20 20 20 20 20 20 21 21 21 21 21 21 22 22 21 21 20 21 21 21 21 21 21 21 21 22 22 22 23 23 22 22 22
22 21 21 20 20 20 19 20 20 20 20 20 20 19 19 19 19 20 19 20 21 21 21 21 20 20 20 20 21 22 21 21 21 20 21 21 22 22 23 23 23 22 22
23 22 22 21 21 21 20 20 20 20 20 20 20 20 19 19 20 20 19 19 19 19 19 20 21 20 21 21 21 21 21 21 21 21 21 21 21 22 22 22 22 22 22
24 23 23 22 22 21 21 20 20 21 21 21 20 20 19 19 19 19 19 19 19 19 19 19 20 21 21 22 22 22 22 22 22 22 22 22 22 22 22 22 22 21 22
24 23 22 22 22 21 21 21 20 21 21 21 20 19 18 18 18 18 19 19 19 20 20 20 20 21 21 22 22 22 22 22 22 22 22 22 22 22 22 22 21 21 21
23 22 22 22 21 21 21 20 20 20 20 20 19 19 19 18 18 19 19 20 20 20 20 21 20 21 21 22 22 22 22 21 21 22 22 23 22 22 22 22 22 21 21
23 23 22 21 21 21 20 20 20 20 20 20 19 19 19 19 19 19 19 19 20 20 20 20 20 20 20 21 22 22 22 22 21 22 22 22 21 21 22 22 21 21 22
24 24 23 22 22 21 21 20 20 20 19 19 19 19 19 19 19 19 19 19 19 19 19 19 19 20 20 21 21 21 21 21 22 22 22 21 21 22 22 22 22 22 22
25 25 25 25 24 23 22 22 21 21 20 19 19 19 19 19 19 18 18 19 19 19 19 19 19 19 19 20 19 19 20 21 21 21 21 21 21 21 21 21 21 22 21
26 26 26 26 25 24 22 22 21 21 21 19 19 19 19 19 19 19 19 19 19 18 18 18 18 18 18 19 18 19 19 20 21 20 19 20 20 20 20 20 20 20 20
26 26 24 24 24 24 22 22 22 21 21 20 20 20 19 19 19 20 19 19 19 18 18 18 18 18 18 19 19 19 19 19 19 19 18 18 19 18 19 19 19 20 20
25 25 24 24 24 23 23 23 22 22 21 21 21 20 20 20 20 20 21 20 19 19 19 19 19 18 18 18 18 19 19 18 18 18 18 18 18 19 19 19 19 19 20
Wind_Direction
270 271 273 272 269 269 271 270 273 277 283 286 285 282 270 269 266 264 265 268 270 273 275 273 271 271 274 274 273 270 271 271 270 269 270 272 272 270 269 269 270 267 263
268 269 269 271 269 267 269 271 274 277 279 283 283 281 272 267 264 261 262 265 269 274 274 273 273 273 275 276 275 272 270 270 270 270 271 272 272 271 271 269 270 269 265
269 268 268 270 270 267 268 269 272 274 276 279 279 277 272 266 262 261 261 264 266 270 273 272 271 272 273 275 272 271 271 272 272 272 273 273 273 273 274 273 273 272 268
269 269 267 266 267 268 269 268 271 274 275 277 277 274 272 269 265 263 263 263 267 270 271 271 269 268 271 274 272 272 273 273 272 272 273 273 273 272 271 273 272 272 270
268 269 267 263 264 267 270 271 273 272 272 275 275 272 271 273 270 268 265 265 266 269 269 267 266 268 271 272 272 271 272 274 273 274 275 274 273 272 270 271 271 272 269
267 267 266 264 265 269 271 273 272 270 271 274 274 271 271 272 268 268 266 264 266 269 269 265 264 266 269 272 271 273 272 273 274 275 275 274 273 274 272 270 269 269 269
266 267 265 263 264 266 266 270 271 270 272 274 274 271 270 269 266 266 266 266 267 267 267 265 266 267 268 270 271 274 274 273 274 274 275 274 273 274 273 270 266 266 267
265 267 265 262 265 265 264 267 270 269 270 272 274 270 270 267 266 266 268 268 269 270 269 266 266 268 271 272 275 276 275 274 274 275 275 275 274 274 274 271 268 265 264
263 264 263 263 264 265 266 268 268 268 267 269 273 269 267 267 268 269 269 269 268 270 271 268 268 271 274 276 278 279 274 274 274 276 275 276 275 274 273 271 270 267 265
262 264 264 262 263 265 267 267 267 266 265 267 270 269 268 267 268 269 268 268 267 268 270 270 271 274 277 278 278 279 277 278 278 277 278 277 276 274 273 272 272 270 267
264 267 266 263 262 263 264 265 266 266 267 270 269 269 271 268 270 268 266 266 266 267 269 271 271 274 276 276 276 275 276 277 277 277 277 275 275 276 274 275 274 271 267
266 268 268 266 265 263 262 264 265 268 268 270 269 272 271 270 269 267 264 264 265 266 267 270 272 274 276 276 277 277 277 278 278 278 276 273 274 276 276 275 273 270 266
265 267 268 269 268 266 266 265 265 266 271 273 274 274 271 271 270 267 263 263 264 263 266 269 273 277 277 278 278 279 279 279 279 279 277 274 273 273 274 274 273 270 267
263 266 267 267 269 268 268 268 266 268 270 273 276 276 274 270 269 268 264 262 261 261 265 270 274 277 278 277 276 278 279 280 279 278 276 275 272 272 272 273 272 270 268
264 264 265 266 265 267 269 268 269 270 271 274 276 277 275 271 268 268 266 262 261 262 267 271 275 276 277 277 276 278 279 280 279 279 279 277 276 273 272 271 271 271 270
263 264 264 265 264 264 265 267 270 270 272 274 274 277 275 271 271 270 269 267 264 264 267 270 273 275 278 279 278 278 278 279 279 280 280 280 278 275 274 271 271 270 270
267 268 266 264 264 264 265 267 268 267 269 271 273 273 273 273 273 272 271 269 268 267 269 271 271 274 277 277 279 279 279 277 277 278 279 279 277 276 274 273 272 271 269
266 267 264 263 262 262 264 264 264 265 266 270 272 272 272 273 273 273 272 270 269 268 268 271 272 273 276 277 278 279 279 277 277 277 276 277 277 278 276 275 273 272 271
264 264 262 260 260 261 262 260 261 265 267 269 271 273 274 272 270 271 272 271 272 271 271 271 274 276 276 277 278 279 279 279 278 277 275 276 276 276 275 274 272 272 272
261 260 259 259 260 262 261 258 261 264 267 269 270 273 274 272 270 270 272 273 272 273 273 275 276 279 278 278 278 277 277 278 277 277 276 277 275 273 273 272 271 272 273
259 258 259 259 260 261 258 257 259 263 266 267 268 270 270 269 269 270 272 274 274 274 274 276 278 279 282 282 280 278 277 278 277 277 277 276 274 272 273 272 272 273 273
258 257 257 257 256 255 256 258 260 262 265 266 266 267 268 267 269 272 273 275 277 276 275 276 280 279 280 282 282 281 280 280 279 277 274 272 272 273 274 273 272 272 274
257 257 257 257 255 255 255 256 259 260 261 264 265 265 267 267 270 272 275 278 278 278 277 277 280 279 280 282 282 283 283 283 283 280 275 273 272 271 273 274 275 275 274
256 257 257 255 255 255 254 254 257 259 260 261 263 265 266 267 269 272 276 278 279 279 280 279 281 280 281 283 282 286 286 285 283 280 277 276 274 273 273 274 276 276 276
256 257 254 253 254 253 252 252 253 256 259 261 261 263 266 268 269 271 273 275 275 277 278 278 281 281 282 284 285 288 290 288 285 281 277 278 277 274 276 276 276 276 279
255 256 253 252 252 252 252 251 251 253 255 259 261 263 266 267 268 270 271 272 273 275 277 278 280 281 282 283 285 289 292 290 285 283 279 278 278 277 277 278 277 277 279
Height
5842 5842 5842 5842 5842 5842 5842 5842 5842 5842 5842 5841 5841 5841 5841 5842 5842 5842 5842 5842 5842 5841 5841 5841 5841 5841 5841 5841 5841 5841 5841 5841 5842 5842 5842 5842 5842 5842 5841 5841 5841 5842 5842
5838 5838 5838 5838 5838 5839 5839 5838 5838 5838 5839 5838 5838 5838 5838 5839 5839 5839 5839 5839 5839 5838 5838 5838 5838 5838 5838 5837 5837 5838 5838 5838 5838 5838 5838 5838 5839 5838 5838 5837 5837 5837 5837
5833 5833 5834 5834 5834 5834 5834 5835 5835 5835 5835 5835 5835 5835 5835 5835 5835 5835 5835 5835 5835 5835 5835 5835 5834 5834 5834 5834 5834 5834 5834 5834 5834 5834 5834 5834 5834 5834 5834 5833 5833 5832 5833
5829 5829 5829 5829 5830 5830 5830 5830 5830 5831 5831 5831 5831 5832 5832 5832 5832 5832 5832 5832 5832 5832 5831 5831 5831 5830 5831 5830 5830 5830 5830 5830 5830 5830 5830 5830 5830 5830 5830 5829 5828 5828 5828
5824 5824 5824 5825 5825 5826 5826 5826 5826 5826 5827 5827 5827 5827 5828 5828 5828 5828 5828 5828 5828 5828 5828 5827 5827 5827 5827 5826 5826 5826 5826 5826 5826 5826 5826 5825 5825 5825 5825 5824 5824 5823 5823
5819 5819 5819 5820 5821 5821 5821 5821 5821 5821 5822 5822 5822 5822 5822 5823 5823 5823 5824 5824 5824 5824 5823 5823 5823 5823 5823 5823 5822 5822 5822 5822 5822 5821 5821 5820 5820 5820 5819 5819 5819 5818 5818
5813 5814 5814 5815 5815 5816 5816 5816 5816 5816 5816 5817 5816 5816 5817 5817 5818 5819 5819 5819 5819 5819 5819 5818 5818 5819 5819 5818 5818 5817 5817 5816 5816 5816 5815 5815 5814 5814 5814 5814 5814 5813 5813
5808 5808 5809 5809 5810 5810 5811 5810 5811 5811 5811 5811 5811 5811 5811 5812 5813 5814 5814 5815 5815 5814 5814 5813 5813 5814 5814 5814 5813 5812 5812 5811 5811 5810 5810 5809 5809 5808 5808 5808 5808 5808 5809
5803 5803 5803 5804 5804 5805 5805 5805 5805 5805 5806 5806 5805 5806 5806 5807 5808 5808 5809 5809 5810 5810 5810 5809 5809 5809 5809 5809 5808 5807 5806 5806 5805 5805 5804 5803 5803 5803 5803 5802 5802 5803 5803
5797 5798 5797 5798 5799 5799 5800 5800 5800 5800 5800 5800 5800 5801 5801 5802 5802 5803 5804 5804 5804 5805 5805 5805 5804 5804 5804 5803 5802 5802 5801 5801 5800 5799 5799 5798 5797 5797 5797 5797 5797 5796 5797
5792 5793 5793 5793 5794 5794 5794 5794 5794 5794 5794 5795 5795 5796 5796 5796 5797 5797 5798 5798 5799 5799 5799 5799 5799 5799 5799 5798 5797 5796 5796 5795 5795 5794 5793 5793 5792 5791 5791 5791 5790 5790 5790
5787 5787 5787 5788 5788 5788 5788 5789 5789 5789 5789 5790 5790 5790 5790 5790 5791 5791 5792 5792 5793 5793 5794 5794 5794 5794 5793 5792 5791 5791 5790 5789 5789 5788 5787 5786 5786 5785 5785 5784 5784 5784 5784
5781 5782 5782 5783 5782 5783 5783 5783 5783 5783 5784 5785 5785 5784 5784 5784 5785 5785 5786 5786 5787 5787 5788 5788 5788 5787 5787 5786 5785 5784 5784 5783 5782 5781 5781 5780 5779 5779 5778 5778 5777 5777 5777
5776 5776 5777 5777 5777 5777 5777 5778 5778 5778 5779 5779 5779 5779 5779 5778 5779 5779 5780 5780 5781 5781 5782 5782 5782 5781 5781 5780 5779 5778 5777 5776 5776 5775 5774 5773 5773 5772 5772 5771 5771 5771 5771
5771 5771 5771 5771 5771 5772 5772 5773 5773 5773 5773 5773 5773 5773 5773 5773 5773 5773 5774 5774 5775 5775 5776 5776 5776 5775 5775 5774 5773 5772 5771 5770 5769 5768 5768 5767 5766 5765 5765 5765 5764 5764 5764
5765 5766 5766 5766 5766 5767 5767 5767 5768 5768 5768 5768 5768 5768 5767 5767 5767 5768 5768 5768 5769 5769 5770 5770 5770 5770 5769 5768 5767 5766 5765 5764 5763 5762 5761 5760 5759 5759 5758 5758 5757 5757 5757
5760 5760 5760 5761 5761 5761 5762 5762 5763 5763 5763 5763 5763 5762 5762 5761 5761 5762 5762 5763 5763 5763 5764 5764 5764 5764 5763 5762 5761 5760 5759 5758 5757 5756 5755 5754 5753 5752 5751 5751 5750 5750 5750
5754 5754 5754 5755 5755 5756 5756 5756 5757 5757 5757 5757 5757 5756 5756 5755 5755 5756 5756 5757 5757 5758 5758 5758 5758 5757 5756 5755 5754 5753 5752 5751 5750 5749 5748 5747 5746 5745 5744 5744 5744 5744 5744
5748 5748 5748 5749 5749 5750 5750 5750 5751 5751 5751 5752 5752 5751 5750 5750 5750 5750 5751 5751 5752 5752 5752 5752 5751 5751 5750 5749 5748 5747 5746 5745 5744 5742 5741 5740 5739 5738 5738 5737 5737 5737 5737
5741 5742 5742 5743 5743 5743 5744 5745 5745 5746 5746 5746 5746 5746 5745 5745 5745 5745 5745 5746 5746 5746 5746 5745 5745 5744 5743 5742 5741 5740 5739 5738 5737 5736 5734 5734 5732 5732 5731 5731 5731 5731 5730
5734 5735 5736 5736 5737 5738 5738 5739 5739 5740 5740 5740 5740 5740 5740 5740 5740 5740 5740 5740 5740 5740 5740 5739 5739 5738 5737 5736 5735 5733 5732 5731 5730 5729 5728 5727 5726 5726 5725 5724 5724 5724 5723
5727 5728 5729 5730 5731 5731 5732 5733 5734 5734 5734 5734 5734 5734 5734 5735 5735 5735 5734 5734 5734 5734 5733 5733 5732 5731 5730 5729 5728 5726 5725 5724 5723 5722 5721 5720 5720 5719 5719 5718 5718 5717 5717
5720 5721 5722 5723 5724 5725 5726 5727 5727 5728 5728 5728 5728 5729 5729 5729 5729 5729 5729 5728 5728 5727 5727 5726 5726 5725 5724 5723 5721 5720 5719 5717 5716 5715 5714 5714 5713 5713 5713 5712 5712 5711 5711
5712 5714 5715 5716 5717 5718 5718 5720 5720 5721 5722 5722 5723 5723 5723 5723 5723 5723 5723 5722 5722 5721 5721 5720 5720 5719 5718 5717 5716 5714 5713 5711 5710 5709 5708 5707 5707 5707 5707 5706 5706 5705 5705
5705 5706 5708 5709 5710 5711 5712 5713 5714 5715 5716 5716 5717 5717 5717 5717 5717 5717 5717 5717 5716 5715 5715 5715 5714 5713 5713 5711 5710 5708 5707 5705 5704 5703 5702 5701 5701 5701 5701 5701 5700 5700 5700
5698 5699 5700 5702 5703 5704 5705 5706 5707 5708 5709 5710 5710 5711 5711 5712 5711 5711 5711 5710 5710 5710 5709 5709 5709 5708 5707 5705 5704 5703 5701 5700 5699 5697 5697 5696 5696 5695 5695 5695 5694 5694 5694